This is the latest recevied weather packets stored in our database for station/object KD8PH. If no packets are shown the sender has not sent any weather packets the latest 10 day(s).
| Time | Temp. | Humidity | Pressure | Rain* | Wind** | Luminosity | Snow |
|---|---|---|---|---|---|---|---|
| 1777867547 | 11.11° C | 81% | 1016.3 hPa | 0 mm | - | - | - |
| 1777866939 | 11.11° C | 79% | 1016.5 hPa | 0 mm | - | - | - |
| 1777866344 | 11.67° C | 79% | 1016.6 hPa | 0 mm | - | - | - |
| 1777865734 | 11.67° C | 80% | 1016.7 hPa | 0 mm | - | - | - |
| 1777865137 | 11.67° C | 79% | 1016.8 hPa | 0 mm | - | - | - |
| 1777864538 | 12.22° C | 78% | 1016.8 hPa | 0 mm | - | - | - |
| 1777863939 | 12.22° C | 77% | 1016.8 hPa | 0 mm | - | - | - |
| 1777863335 | 12.22° C | 77% | 1016.7 hPa | 0 mm | - | - | - |
| 1777862751 | 12.22° C | 76% | 1016.6 hPa | 0 mm | - | - | - |
| 1777862152 | 12.78° C | 76% | 1016.5 hPa | 0 mm | - | - | - |
| 1777861538 | 12.78° C | 74% | 1016.3 hPa | 0 mm | - | - | - |
| 1777860937 | 12.78° C | 73% | 1016.2 hPa | 0 mm | - | - | - |
| 1777860341 | 13.33° C | 75% | 1016 hPa | 0 mm | - | - | - |
| 1777859742 | 13.33° C | 74% | 1015.9 hPa | 0 mm | - | - | - |
| 1777859134 | 13.89° C | 74% | 1015.9 hPa | 0 mm | - | - | - |
| 1777858538 | 14.44° C | 74% | 1015.7 hPa | 0 mm | - | - | - |
| 1777857936 | 15° C | 71% | 1015.8 hPa | 0 mm | - | - | - |
| 1777857337 | 15° C | 70% | 1015.7 hPa | 0 mm | - | - | - |
| 1777856739 | 15.56° C | 68% | 1015.7 hPa | 0 mm | - | - | - |
| 1777856135 | 16.11° C | 65% | 1015.7 hPa | 0 mm | - | - | - |
| 1777855541 | 16.11° C | 63% | 1015.7 hPa | 0 mm | - | - | - |
| 1777854938 | 17.22° C | 61% | 1015.6 hPa | 0 mm | - | - | - |
| 1777854334 | 17.78° C | 57% | 1015.6 hPa | 0 mm | - | - | - |
| 1777853748 | 18.33° C | 53% | 1015.5 hPa | 0 mm | - | - | - |
| 1777853142 | 18.89° C | 50% | 1015.6 hPa | 0 mm | - | - | - |
* Rain latest hour (hover to see other rain measurements)
** Current wind speed in m/s (hover to see current wind gust speed)